CZ-2C R/B, 61873

Orbit data source: Space-Track

CZ-2C R/B, 61873 is space debris in SSO originally from a launch on Sat, 09 Nov 2024 UTC launched from the Jiuquan Satellite Launch Center, China (JSC). Debris objects in space refer to the collection of defunct objects orbiting the Earth. Examples of debris include non-operational satellites, rocket bodies, and fragments generated from explosions, collisions, or faulty payload assembly.

Loading next visibility...
CZ-2C R/B details
Identifier
61873, 2024-203E
Orbit
SSO
Last TLE update23 hours ago
Origin
Flag of CNCASC (CN / PRC)
ManufacturerBWYIC
MissionSpacecraft
Bus & MotorCZ-2 STAGE 2, Unknown motor
Mass4,006 kg wet, 4,006 kg dry
Launch date (UTC)
2024-11-09 (1 month ago)
Launch vehicleUnknown
Launch site
Jiuquan Satellite Launch Center, China (JSC)
Object type
Payload
Rocket body
Debris
Shape & HBRUnknown
Radar Cross SectionLarge (>1 m²)

Expand to show TLE details & history

TLE from 23 hours ago
0 CZ-2C R/B
1 61873U 24203E   24347.89176168  .00009077  00000-0  39376-3 0  9996
2 61873  97.3823  51.7134 0100776  25.8458 334.7761 15.18002439  5114
Epoch: 2024-12-12T21:24Z
Definitive object data (Epoch: 2024-12-12T21:24:08.209Z)
Latitude0.00003°
Longitude8.61361°
Altitude452.268 km
Speed7.676 km/s
True Right ascension03h 26m 51s
True Declination0° 00' 00"
Sunlit
Object was in full shadow at TLE epoch
Visualization TLE readout
Latitude-77.1758°
Longitude155.08447°
Altitude576.918 km
Speed7.55 km/s
Apparent Right ascension08h 23m 15s
Apparent Declination-64° 36' 41"
Sunlit
Object is in daylight
Visualization observer readout
Local Sidereal Time19:13:08
Azimuth196.696° SSW
Elevation-63.287°
Doppler factor1
Orbital elements
Apogee altitude578.25 km
Perigee altitude439.441 km
Semi-major axis6,886.982 km
Eccentricity0.0100776
Inclination97.3823°
RAAN51.7134°
Arg. of periapsis25.8458°
True anomaly334.27831°
Mean anomaly334.7761°
Eccentric anomaly334.52777°
Mean motion3.79752 °/min
BSTAR0.00039376
Orbital period94.8 mins
Loading maneuver chart data...
Loading historical data...
Loading historical data...
Loading historical data...
Loading historical data...
Loading historical data...
Loading historical data...
Loading historical data...
Other satellites on launch #203 in the year 2024 (2024-11-09 UTC)

CZ-2C R/B Visibility forecast

Observer location: undefined°, undefined

Span
Click to sort rows by Start time (UTC) header in descending order
Start Az.
Max El. time (UTC)
Max El. Az.
Max El.
End time (UTC)
End Az.
5 mins2024-12-14 16:41:31.118Z47.875° ENE2024-12-14 16:43:31.118Z89.869° E24.889°2024-12-14 16:46:31.118Z150.836° SSE
|